Terminal Aerodrome Forecast
Issued by NWS

Home | Current Version | Previous Version | Text Only | Print | Product List | Glossary On
Versions: 1 2 3 4 5 6 7 8 9 10 11 12 13 14
058
FTUS42 TJSJ 252333
TAFKPK
TAF
TKPK 252333Z 2600/2624 06010KT P6SM VCTS SCT018CB BKN035
     FM261300 07012KT P6SM VCSH FEW018 SCT022 SCT035
     FM262300 06010KT P6SM FEW020
      AMD NOT SKED 2602/2611=

USA.gov is the U.S. government's official web portal to all federal, state and local government web resources and services.